Location: Shepherdstown, WV
(39.4326°N, 77.8042°W)
Time: 04:31:06
(UTC-04:00)

Vanguard 1 - Pass Details

Date: 01 October 2021
Orbit: 653 x 3829 km, 34.2° (Epoch: 18 October)

Event Time Altitude Azimuth Distance (km) Brightness Sun altitude
Rises 01:30:21 0° 285° (WNW) 7,396 14.6 -53.2°
Reaches altitude 10° 01:35:39 10° 278° (W) 6,640 14.2 -53.0°
Enters shadow 01:41:12 20° 267° (W) 5,954 13.8 -52.7°
